Regional Weather Roundup
Issued by NWS

Home | Current Version | Previous Version | Graphics & Text | Print | Product List | Glossary On
Versions: 1 2 3 4 5 6 7 8 9 10 11 12 13 14 15 16 17 18 19 20 21 22 23 24 25 26 27 28 29 30 31 32 33 34 35 36 37 38 39 40 41 42 43 44 45 46 47 48 49 50
299
ASUS43 KMPX 221401
RWRMN
WEATHER ROUNDUP FOR MINNESOTA
NATIONAL WEATHER SERVICE TWIN CITIES/CHANHASSEN MN
900 AM CDT FRI MAY 22 2015


NOTE: "FAIR" INDICATES FEW OR NO CLOUDS BELOW 12,000 FEET WITH NO
SIGNIFICANT WEATHER AND/OR OBSTRUCTIONS TO VISIBILITY. N/A MEANS
CURRENT SKY AND/OR WEATHER CONDITIONS ARE NOT AVAILABLE.

MNZ060>063-068>070-221500-
   Twin Cities Metro

CITY           SKY/WX    TMP DP  RH WIND       PRES   REMARKS
TWIN CITIES    SUNNY     60  39  45 NE5       30.20F
ST PAUL        SUNNY     58  40  51 CALM      30.21S
CRYSTAL        SUNNY     60  38  43 CALM      30.20S
LAKEVILLE      SUNNY     59  39  47 CALM      30.19S
EDEN PRAIRIE   SUNNY     60  39  45 NE5       30.19F
SOUTH ST PAUL  SUNNY     60  37  42 NE5       30.20S
LAKE ELMO      FAIR      59  41  51 CALM      30.22R
$$
MNZ001>005-007-008-013>017-022>024-027-028-221500-
   Northwest Minnesota

CITY           SKY/WX    TMP DP  RH WIND       PRES   REMARKS
BEMIDJI        SUNNY     56  39  53 CALM      30.21R
HALLOCK        SUNNY     59  43  55 S10       30.16S
ROSEAU         SUNNY     59  39  47 SW7       30.18S
WARROAD        SUNNY     57  46  67 CALM      30.18S
THIEF RVR FALL SUNNY     57  37  47 S6        30.20S
CROOKSTON      SUNNY     57  36  44 S7        30.20S
FOSSTON        SUNNY     55  39  54 SW7       30.21R
DETROIT LAKES  SUNNY     59  45  58 CALM      30.21S
MOORHEAD       SUNNY     57  41  54 CALM      30.20F
PARK RAPIDS    SUNNY     58  39  49 S3        30.20S
MAHNOMEN       FAIR      54  41  60 CALM      30.21S
$$
MNZ006-009>011-018-025>026-221500-
   North Central Minnesota

CITY           SKY/WX    TMP DP  RH WIND       PRES   REMARKS
BAUDETTE       SUNNY     55  40  56 S5        30.18S
FLAG ISLAND    PTSUNNY   52  41  66 SE5       30.16S
INTL FALLS     SUNNY     56  33  42 S3        30.18F
WASKISH        SUNNY     57  45  62 CALM      30.20R
BIG FORK       SUNNY     57  37  47 CALM      30.21R
LONGVILLE      SUNNY     57  37  47 SW5       30.21S
GRAND RAPIDS   SUNNY     57  34  41 CALM      30.22R
CRANE LAKE     SUNNY     54  30  40 SW3       30.21S
COOK           SUNNY     54  36  50 CALM      30.21R
WALKER         FAIR      55  37  52 CALM      30.21S
$$
MNZ012-019>021-037-221500-
   Northeast Minnesota

CITY           SKY/WX    TMP DP  RH WIND       PRES   REMARKS
DULUTH         SUNNY     57  30  35 SW5       30.21R
ELY            SUNNY     54  27  35 W6        30.20S
HIBBING        SUNNY     56  33  42 SW3       30.21R
EVELETH        SUNNY     54  34  47 CALM      30.22R
DULUTH HARBOR    N/A     46  37  71 NE3       30.25R
TWO HARBORS    SUNNY     55  37  50 S3        30.20R
SILVER BAY     SUNNY     55  27  33 CALM      30.20R
GRAND MARAIS     N/A     42  31  64 E6        30.23R
G MARAIS ARPRT SUNNY     48  19  32 S5        30.21R
$$
MNZ029>031-032-039>041-046>048-054>057-064-221500-
   West Central Minnesota

CITY           SKY/WX    TMP DP  RH WIND       PRES   REMARKS
FERGUS FALLS   SUNNY     61  45  55 CALM      30.20F
WHEATON        SUNNY     55  43  62 CALM      30.21S
MORRIS         SUNNY     59  41  51 CALM      30.19S
ALEXANDRIA     SUNNY     60  33  36 SE6       30.21R
ELBOW LAKE     FAIR      58  42  56 E3        30.19S
WADENA         SUNNY     55  41  58 CALM      30.20S
GLENWOOD       SUNNY     61  37  41 E6        30.21R
APPLETON       SUNNY     61  43  51 CALM      30.19S
BENSON         SUNNY     59  39  47 CALM      30.20S
ORTONVILLE     SUNNY     61  37  41 CALM      30.19S
MADISON        SUNNY     61  39  44 CALM      30.19S
WILLMAR        FAIR      61  39  44 SE6       30.22R
$$
MNZ033>034-036-042>043-049>051-058-059-221500-
   Central Minnesota

CITY           SKY/WX    TMP DP  RH WIND       PRES   REMARKS
ST CLOUD       SUNNY     59  38  45 S5        30.21S
SAUK CENTRE    FAIR      57  39  51 E5        30.21S
PAYNESVILLE    SUNNY     56  37  49 CALM      30.21S
AITKIN         SUNNY     57  37  47 CALM      30.20S
PINE RIVER     SUNNY     57  41  54 CALM      30.24S
BRAINERD       SUNNY     58  39  49 VRB3      30.22R
STAPLES        SUNNY     57  37  47 CALM      30.21S
LONG PRAIRIE   FAIR      57  36  44 SE5       30.21S
LITTLE FALLS   SUNNY     55  36  47 CALM      30.21S
LITCHFIELD     SUNNY     61  37  41 SE5       30.21R
BUFFALO        SUNNY     58  41  52 NE3       30.21S
MAPLE LAKE     SUNNY     59  42  53 E5        30.21F
$$
MNZ037-044-045-052-053-221500-
   East Central Minnesota

CITY           SKY/WX    TMP DP  RH WIND       PRES   REMARKS
PRINCETON      SUNNY    N/A N/A N/A CALM      30.21S
MORA           SUNNY     55  37  50 CALM      30.23R
CAMBRIDGE      SUNNY     61  41  48 CALM      30.20S
RUSH CITY      SUNNY     55  40  56 CALM      30.22S
MOOSE LAKE     SUNNY     55  34  44 CALM      30.21R
HINCKLEY       FAIR      55  36  47 CALM      30.22S
CLOQUET        SUNNY     57  28  33 S3        30.22R
MCGREGOR       SUNNY     55  37  50 CALM      30.22S
$$
MNZ071>073-080-081-089-090-097-098-221500-
   Southwest Minnesota

CITY           SKY/WX    TMP DP  RH WIND       PRES   REMARKS
MONTEVIDEO     SUNNY     61  45  55 CALM      30.21S
GRANITE FALLS  SUNNY     57  41  55 CALM      30.22R
CANBY          SUNNY     61  39  43 CALM      30.21R
MARSHALL       SUNNY     61  36  39 CALM      30.20R
REDWOOD FALLS  SUNNY     57  42  57 NE5       30.20S
OLIVIA         SUNNY     57  37  47 CALM      30.20S
WINDOM         SUNNY     61  39  44 CALM      30.21R
WORTHINGTON    SUNNY     63  37  39 E3        30.21S
JACKSON        SUNNY     63  32  31 CALM      30.22R
TRACY          SUNNY     62  36  38 CALM      30.21R
SLAYTON        SUNNY     61  35  38 CALM      30.22R
$$
MNZ065>067-074>077-082>085-091>093-221500-
   South Central Minnesota

CITY           SKY/WX    TMP DP  RH WIND       PRES   REMARKS
MANKATO        SUNNY     59  37  44 CALM      30.21R
NEW ULM        SUNNY     57  37  47 CALM      30.20S
ST JAMES       SUNNY     61  36  39 CALM      30.22R
FAIRMONT       SUNNY     63  36  36 CALM      30.21R
GLENCOE        SUNNY     61  40  47 E3        30.20R
FARIBAULT      SUNNY     61  43  51 CALM      30.20S
OWATONNA       SUNNY     61  37  41 E3        30.20R
WASECA         SUNNY     55  41  58 CALM      30.21S
ALBERT LEA     SUNNY     61  41  48 CALM      30.20R
$$
MNZ078>079-086>088-094>096-221500-
   Southeast Minnesota

CITY           SKY/WX    TMP DP  RH WIND       PRES   REMARKS
ROCHESTER      SUNNY     60  39  45 CALM      30.21R
RED WING       SUNNY     59  39  47 CALM      30.19S
STANTON        SUNNY     59  39  47 CALM      30.18S
DODGE CENTER   SUNNY     61  37  41 CALM      30.19S
WINONA         SUNNY     55  45  67 CALM      30.19F
AUSTIN         SUNNY     61  43  51 CALM      30.19S
PRESTON        SUNNY     57  38  48 CALM      30.20R
$$
ABBREVIATIONS USED IN REMARKS
   TC - TEMPERATURES IN CELSIUS
  WCI - WIND CHILL INDEX
   HX - HEAT INDEX
  VSB - VISIBILITY
$$



USA.gov is the U.S. government's official web portal to all federal, state and local government web resources and services.